Bluefield, WV

1:51 PM EDT on July 28, 2016 (GMT -0400)
Mercer County

Weather History for KBLF - July, 2013

Change the Weather History Date:

Monday, July 22, 2013

  Actual Average Record
Temperature  
Mean Temperature 76 °F 73 °F  
Max Temperature 84 °F 81 °F 92 °F (2011)
Min Temperature 68 °F 65 °F 56 °F (1970)
Degree Days  
Heating Degree Days 0 0  
Month to date heating degree days 0 0  
Since 1 June heating degree days 0 22  
Since 1 July heating degree days 0 0  
Cooling Degree Days 11 8  
Month to date cooling degree days 234 176  
Year to date cooling degree days 539 433  
Since 1 June cooling degree days 425 342  
Growing Degree Days 25 (Base 50)    
Moisture  
Dew Point 65 °F    
Average Humidity 70    
Maximum Humidity 84    
Minimum Humidity 55    
Precipitation  
Precipitation 0.39 in 0.13 in 0.88 in (1962)
Month to date precipitation 2.55 3.02  
Year to date precipitation 25.91 23.98  
Snow  
Snow 0.00 in - - ()
Month to date snowfall 0.0  
Since 1 June snowfall 0.0  
Since 1 July snowfall 0.0  
Snow Depth 0.00 in    
Sea Level Pressure  
Sea Level Pressure 29.94 in    
Wind  
Wind Speed 6 mph (WSW)    
Max Wind Speed 15 mph    
Max Gust Speed 20 mph    
Visibility 9 miles    
Events Rain    
T = Trace of Precipitation, MM = Missing Value Source: NWS Daily Summary

Daily Weather History Graph

Daily Weather History Graph

Search for Another Location

Airport or City:

Trip Planner

Search our weather history database for the weather conditions in past years. The results will help you decide how hot, cold, wet, or windy it might be!

Date:

Astronomy

Jul. 22, 2013 Rise Set
Actual Time 6:21 AM EDT 8:40 PM EDT
Civil Twilight 5:51 AM EDT 9:10 PM EDT
Nautical Twilight 5:15 AM EDT 9:46 PM EDT
Astronomical Twilight 4:35 AM EDT 10:26 PM EDT
Moon 8:27 PM EDT (7/22) 6:14 AM EDT (7/22)
Length of Visible Light 15h 18m
Length of Day
14h 19m
Full, 100% of the Moon is Illuminated
Jul 22
Full
Jul 22
Full
Jul 29
Last Quarter
Aug 6
New
Aug 14
First Quarter

Hourly Weather History & Observations

Time (EDT) Temp. Heat Index Dew Point Humidity Pressure Visibility Wind Dir Wind Speed Gust Speed Precip Events Conditions
12:52 AM 72.0 °F - 66.9 °F 84% 29.95 in 10.0 mi West 3.5 mph - N/A   Clear
1:52 AM 71.1 °F - 66.0 °F 84% 29.94 in 10.0 mi West 3.5 mph - N/A   Clear
2:52 AM 71.1 °F - 64.0 °F 78% 29.93 in 10.0 mi WSW 4.6 mph - N/A   Clear
3:52 AM 70.0 °F - 63.0 °F 78% 29.91 in 10.0 mi West 3.5 mph - N/A   Clear
4:52 AM 69.1 °F - 63.0 °F 81% 29.90 in 10.0 mi WNW 4.6 mph - N/A   Clear
5:43 AM 69.8 °F - 62.6 °F 78% 30.03 in 10.0 mi WSW 4.6 mph - N/A   Mostly Cloudy
5:52 AM 69.1 °F - 64.0 °F 84% 29.91 in 10.0 mi WSW 3.5 mph - N/A   Mostly Cloudy
6:14 AM 68.0 °F - 62.6 °F 83% 30.03 in 10.0 mi West 4.6 mph - N/A   Scattered Clouds
6:36 AM 68.0 °F - 62.6 °F 83% 30.04 in 10.0 mi WSW 4.6 mph - N/A   Mostly Cloudy
6:52 AM 69.1 °F - 63.0 °F 81% 29.93 in 10.0 mi WSW 3.5 mph - N/A   Overcast
7:52 AM 70.0 °F - 64.0 °F 81% 29.94 in 10.0 mi SW 4.6 mph - N/A   Overcast
8:52 AM 71.1 °F - 64.0 °F 78% 29.96 in 10.0 mi West 4.6 mph - N/A   Overcast
9:05 AM 71.6 °F - 64.4 °F 78% 30.07 in 10.0 mi West 4.6 mph - N/A   Overcast
9:52 AM 73.0 °F - 64.9 °F 76% 29.95 in 10.0 mi WSW 4.6 mph - N/A   Overcast
9:59 AM 75.2 °F - 66.2 °F 73% 30.06 in 10.0 mi Variable 3.5 mph - N/A   Overcast
10:19 AM 73.4 °F - 64.4 °F 73% 30.06 in 10.0 mi West 5.8 mph - N/A   Overcast
10:52 AM 75.9 °F - 64.9 °F 69% 29.94 in 10.0 mi WSW 5.8 mph - N/A   Overcast
11:52 AM 75.9 °F - 66.0 °F 71% 29.94 in 10.0 mi West 3.5 mph - N/A   Overcast
12:19 PM 77.0 °F - 66.2 °F 69% 30.05 in 10.0 mi WSW 5.8 mph - N/A   Overcast
12:28 PM 77.0 °F - 64.4 °F 65% 30.05 in 10.0 mi WSW 5.8 mph - N/A   Overcast
12:52 PM 78.1 °F - 66.0 °F 66% 29.91 in 10.0 mi WSW 5.8 mph - N/A   Overcast
1:06 PM 73.4 °F - 66.2 °F 78% 30.04 in 1.5 mi West 10.4 mph 16.1 mph 0.13 in Rain Heavy Rain
1:09 PM 73.4 °F - 66.2 °F 78% 30.04 in 0.8 mi WSW 9.2 mph 16.1 mph 0.24 in Rain Heavy Rain
1:18 PM 71.6 °F - 66.2 °F 83% 30.03 in 1.0 mi Calm Calm - 0.32 in Rain Light Rain
1:21 PM 73.4 °F - 66.2 °F 78% 30.04 in 3.0 mi Calm Calm - 0.32 in Rain Light Rain
2:52 PM 80.1 °F 82.7 °F 68.0 °F 67% 29.87 in 10.0 mi WSW 6.9 mph - 0.00 in   Mostly Cloudy
3:52 PM 82.0 °F 84.5 °F 66.9 °F 60% 29.85 in 10.0 mi WSW 9.2 mph - N/A   Scattered Clouds
4:52 PM 82.9 °F 84.4 °F 64.0 °F 53% 29.83 in 10.0 mi West 9.2 mph - N/A   Clear
5:52 PM 79.0 °F - 64.0 °F 60% 29.81 in 10.0 mi SSW 5.8 mph - N/A   Scattered Clouds
6:52 PM 75.9 °F - 64.0 °F 67% 29.82 in 10.0 mi SSW 6.9 mph - 0.00 in Rain Light Rain
7:52 PM 77.0 °F - 64.9 °F 66% 29.81 in 10.0 mi West 9.2 mph - 0.00 in   Mostly Cloudy
8:52 PM 75.0 °F - 64.0 °F 69% 29.83 in 10.0 mi West 8.1 mph - N/A   Mostly Cloudy
9:52 PM 73.0 °F - 64.0 °F 73% 29.83 in 10.0 mi WSW 11.5 mph - N/A   Partly Cloudy
10:19 PM 73.4 °F - 64.4 °F 73% 29.95 in 10.0 mi WSW 8.1 mph - N/A   Mostly Cloudy
10:52 PM 71.1 °F - 64.0 °F 78% 29.84 in 9.0 mi WSW 10.4 mph 16.1 mph 0.02 in Rain Light Rain
11:52 PM 70.0 °F - 64.0 °F 81% 29.84 in 10.0 mi WSW 4.6 mph - 0.01 in   Mostly Cloudy